�������l�o���
Date,Time,MP-1(��Sv/h),MP-2(��Sv/h),MP-3(��Sv/h),MP-4(��Sv/h),MP-5(��Sv/h),MP-6(��Sv/h),MP-7(��Sv/h),MP-8(��Sv/h),����,����(m/s),���J
2016/10/08,00:00,1.154,1.921,1.364,2.102,1.484,0.603,1.072,0.987,��,10.7,��
2016/10/08,00:10,1.154,1.921,1.367,2.102,1.485,0.602,1.073,0.987,��,10.2,��
2016/10/08,00:20,1.155,1.921,1.365,2.101,1.488,0.603,1.072,0.988,��,9.1,��
2016/10/08,00:30,1.156,1.920,1.364,2.105,1.487,0.603,1.073,0.989,��,9.1,��
2016/10/08,00:40,1.152,1.920,1.365,2.105,1.487,0.604,1.071,0.989,��,9.7,��
2016/10/08,00:50,1.154,1.919,1.365,2.104,1.488,0.605,1.070,0.988,��,10.8,��
2016/10/08,01:00,1.155,1.922,1.368,2.107,1.487,0.604,1.072,0.989,��,11.3,��
2016/10/08,01:10,1.155,1.923,1.369,2.106,1.486,0.604,1.074,0.989,��,11.6,��
2016/10/08,01:20,1.153,1.924,1.368,2.106,1.485,0.603,1.071,0.989,��,11.2,��
2016/10/08,01:30,1.155,1.922,1.369,2.105,1.489,0.604,1.072,0.989,��,10.8,��
2016/10/08,01:40,1.156,1.926,1.369,2.104,1.486,0.604,1.071,0.991,��,9.9,��
2016/10/08,01:50,1.155,1.923,1.367,2.104,1.487,0.605,1.069,0.989,��,7.7,��
2016/10/08,02:00,1.157,1.924,1.368,2.105,1.482,0.604,1.070,0.989,��,6.9,��
2016/10/08,02:10,1.155,1.925,1.368,2.101,1.483,0.605,1.070,0.988,��,8.0,��
2016/10/08,02:20,1.156,1.921,1.368,2.105,1.485,0.603,1.072,0.990,��,8.3,��
2016/10/08,02:30,1.157,1.923,1.369,2.105,1.487,0.608,1.071,0.988,��,7.1,��
2016/10/08,02:40,1.157,1.923,1.369,2.106,1.483,0.605,1.071,0.989,��,7.7,��
2016/10/08,02:50,1.155,1.924,1.368,2.105,1.486,0.604,1.071,0.988,��,8.9,��
2016/10/08,03:00,1.156,1.923,1.370,2.104,1.485,0.605,1.072,0.990,��,8.5,��
2016/10/08,03:10,1.155,1.925,1.370,2.107,1.489,0.605,1.070,0.989,��,7.7,��
2016/10/08,03:20,1.155,1.925,1.370,2.106,1.490,0.605,1.072,0.988,��,7.7,��
2016/10/08,03:30,1.155,1.929,1.371,2.109,1.489,0.604,1.073,0.991,��,8.8,��
2016/10/08,03:40,1.157,1.924,1.370,2.109,1.488,0.606,1.071,0.991,��,7.5,��
2016/10/08,03:50,1.157,1.924,1.368,2.105,1.486,0.606,1.073,0.990,��,7.1,��
2016/10/08,04:00,1.159,1.924,1.370,2.108,1.488,0.606,1.072,0.990,��,7.7,��
2016/10/08,04:10,1.156,1.923,1.370,2.109,1.490,0.607,1.074,0.990,��,6.9,��
2016/10/08,04:20,1.155,1.926,1.370,2.105,1.489,0.607,1.072,0.993,��,6.9,��
2016/10/08,04:30,1.158,1.922,1.371,2.107,1.488,0.606,1.071,0.990,��,6.4,��
2016/10/08,04:40,1.159,1.924,1.369,2.106,1.488,0.606,1.073,0.988,��,7.1,�L
2016/10/08,04:50,1.155,1.923,1.367,2.104,1.488,0.606,1.072,0.990,��,6.7,��
2016/10/08,05:00,1.157,1.922,1.367,2.104,1.489,0.603,1.069,0.989,��,6.0,��
2016/10/08,05:10,1.157,1.922,1.371,2.103,1.489,0.604,1.071,0.989,��,6.0,��
2016/10/08,05:20,1.157,1.917,1.368,2.105,1.488,0.606,1.073,0.988,��,7.8,�L
2016/10/08,05:30,1.157,1.922,1.370,2.105,1.488,0.606,1.072,0.988,��,6.1,��
2016/10/08,05:40,1.156,1.919,1.368,2.108,1.488,0.605,1.074,0.989,��쐼,7.1,��
2016/10/08,05:50,1.158,1.918,1.370,2.106,1.489,0.605,1.074,0.989,��쐼,9.7,��
2016/10/08,06:00,1.156,1.921,1.364,2.107,1.488,0.607,1.072,0.990,��쐼,10.7,��
2016/10/08,06:10,1.157,1.919,1.367,2.106,1.490,0.606,1.073,0.991,��쐼,11.3,��
2016/10/08,06:20,1.155,1.919,1.369,2.109,1.488,0.606,1.073,0.988,��,11.8,��
2016/10/08,06:30,1.157,1.918,1.367,2.104,1.488,0.605,1.072,0.989,��,11.9,��
2016/10/08,06:40,1.156,1.923,1.369,2.104,1.484,0.607,1.070,0.991,��,11.4,��
2016/10/08,06:50,1.158,1.923,1.366,2.105,1.489,0.606,1.073,0.987,��,12.4,��
2016/10/08,07:00,1.156,1.921,1.370,2.104,1.486,0.607,1.073,0.991,��,12.8,��
2016/10/08,07:10,1.157,1.924,1.368,2.105,1.486,0.607,1.073,0.989,��,14.8,��
2016/10/08,07:20,1.159,1.921,1.370,2.109,1.487,0.608,1.072,0.991,��,13.2,��
2016/10/08,07:30,1.159,1.924,1.368,2.108,1.486,0.607,1.072,0.989,��,12.9,��
2016/10/08,07:40,1.157,1.924,1.370,2.110,1.486,0.608,1.073,0.990,��,13.6,��
2016/10/08,07:50,1.157,1.924,1.369,2.112,1.487,0.607,1.072,0.990,��,13.0,��
2016/10/08,08:00,1.156,1.920,1.373,2.112,1.484,0.607,1.072,0.990,��,11.9,��
2016/10/08,08:10,1.153,1.922,1.372,2.106,1.487,0.605,1.074,0.986,��,11.3,��
2016/10/08,08:20,1.157,1.918,1.369,2.109,1.486,0.605,1.075,0.989,��쐼,11.9,��
2016/10/08,08:30,1.155,1.920,1.371,2.109,1.488,0.604,1.073,0.988,��,10.2,��
2016/10/08,08:40,1.155,1.919,1.369,2.111,1.485,0.604,1.074,0.988,��,10.1,��
2016/10/08,08:50,1.154,1.920,1.368,2.111,1.488,0.606,1.075,0.988,��,11.0,��
2016/10/08,09:00,1.157,1.918,1.371,2.112,1.486,0.605,1.073,0.987,��,11.2,��
2016/10/08,09:10,1.157,1.919,1.369,2.108,1.488,0.606,1.073,0.988,��,13.0,��
2016/10/08,09:20,1.154,1.920,1.369,2.115,1.486,0.604,1.074,0.987,��,13.5,�L
2016/10/08,09:30,1.152,1.921,1.368,2.110,1.486,0.604,1.073,0.989,��,13.4,�L
2016/10/08,09:40,1.153,1.915,1.368,2.107,1.484,0.603,1.072,0.985,��쐼,9.3,�L
2016/10/08,09:50,1.146,1.896,1.359,2.092,1.459,0.600,1.067,0.981,��,13.9,�L
2016/10/08,10:00,1.139,1.874,1.344,2.079,1.442,0.596,1.062,0.978,-,CALM,�L
2016/10/08,10:10,1.124,1.850,1.333,2.063,1.434,0.597,1.060,0.978,��,13.0,�L
2016/10/08,10:20,1.125,1.849,1.336,2.061,1.435,0.596,1.062,0.976,��,12.3,�L
2016/10/08,10:30,1.124,1.855,1.335,2.060,1.433,0.597,1.061,0.977,��,8.8,��
2016/10/08,10:40,1.121,1.860,1.336,2.062,1.437,0.596,1.061,0.978,��,9.4,��
2016/10/08,10:50,1.122,1.859,1.337,2.060,1.437,0.597,1.060,0.979,��,7.7,��
2016/10/08,11:00,1.125,1.863,1.339,2.063,1.435,0.595,1.061,0.977,��,8.3,��
2016/10/08,11:10,1.127,1.863,1.342,2.064,1.438,0.598,1.061,0.977,��,7.5,��
2016/10/08,11:20,1.123,1.866,1.339,2.064,1.441,0.598,1.061,0.979,��,7.5,��
2016/10/08,11:30,1.129,1.866,1.341,2.067,1.443,0.597,1.062,0.978,��,7.2,��
2016/10/08,11:40,1.130,1.865,1.342,2.063,1.442,0.597,1.062,0.979,��,6.3,��
2016/10/08,11:50,1.129,1.865,1.342,2.067,1.441,0.598,1.065,0.979,��,6.7,��
2016/10/08,12:00,1.132,1.867,1.341,2.064,1.443,0.595,1.061,0.978,��,6.1,��
2016/10/08,12:10,1.132,1.871,1.341,2.064,1.444,0.598,1.062,0.980,��,6.9,��
2016/10/08,12:20,1.134,1.868,1.343,2.066,1.443,0.598,1.062,0.980,��,7.4,��
2016/10/08,12:30,1.134,1.870,1.341,2.068,1.445,0.598,1.061,0.980,��,7.1,��
2016/10/08,12:40,1.131,1.870,1.343,2.068,1.445,0.599,1.062,0.980,��,5.5,��
2016/10/08,12:50,1.130,1.875,1.343,2.067,1.446,0.599,1.064,0.980,��,5.3,�L
2016/10/08,13:00,1.131,1.865,1.342,2.068,1.446,0.598,1.062,0.982,��,5.5,��
2016/10/08,13:10,1.133,1.871,1.342,2.067,1.447,0.597,1.063,0.980,��,5.6,�L
2016/10/08,13:20,1.134,1.868,1.342,2.066,1.445,0.599,1.063,0.980,��,4.4,�L
2016/10/08,13:30,1.131,1.867,1.341,2.066,1.447,0.598,1.064,0.981,��,3.3,��
2016/10/08,13:40,1.132,1.871,1.341,2.067,1.445,0.599,1.062,0.981,��쐼,1.8,��
2016/10/08,13:50,1.133,1.873,1.342,2.065,1.447,0.600,1.064,0.978,��,2.0,��
2016/10/08,14:00,1.132,1.874,1.343,2.068,1.449,0.600,1.062,0.980,��,1.9,��
2016/10/08,14:10,1.135,1.873,1.343,2.067,1.449,0.601,1.061,0.980,��,1.4,��
2016/10/08,14:20,1.135,1.876,1.342,2.068,1.445,0.600,1.064,0.980,��쐼,0.6,��
2016/10/08,14:30,1.133,1.874,1.341,2.065,1.447,0.602,1.064,0.982,-,CALM,��
2016/10/08,14:40,1.134,1.874,1.341,2.071,1.446,0.602,1.063,0.980,��,1.4,�L
2016/10/08,14:50,1.133,1.871,1.340,2.064,1.446,0.598,1.059,0.976,��쐼,1.5,�L
2016/10/08,15:00,1.127,1.856,1.334,2.057,1.429,0.597,1.054,0.973,��,1.4,�L
2016/10/08,15:10,1.128,1.856,1.336,2.055,1.425,0.592,1.042,0.955,�쓌,4.6,�L
2016/10/08,15:20,1.127,1.859,1.334,2.050,1.423,0.590,1.039,0.955,��쐼,3.1,�L
2016/10/08,15:30,1.128,1.856,1.333,2.050,1.425,0.591,1.044,0.960,��쐼,2.9,��
2016/10/08,15:40,1.129,1.860,1.335,2.051,1.425,0.592,1.046,0.960,��,4.1,��
2016/10/08,15:50,1.127,1.863,1.334,2.053,1.428,0.594,1.047,0.962,��,4.9,��
2016/10/08,16:00,1.128,1.861,1.335,2.054,1.429,0.594,1.047,0.966,��,6.9,��
2016/10/08,16:10,1.127,1.858,1.334,2.055,1.428,0.593,1.047,0.966,��쓌,8.6,��
2016/10/08,16:20,1.126,1.861,1.338,2.052,1.429,0.595,1.045,0.965,��,9.3,��
2016/10/08,16:30,1.127,1.863,1.335,2.052,1.429,0.593,1.048,0.967,��,10.1,��
2016/10/08,16:40,1.128,1.865,1.334,2.055,1.429,0.593,1.046,0.966,��,8.3,��
2016/10/08,16:50,1.130,1.866,1.338,2.054,1.430,0.593,1.049,0.967,��쐼,6.3,��
2016/10/08,17:00,1.130,1.866,1.336,2.055,1.431,0.592,1.048,0.968,��,6.1,��
2016/10/08,17:10,1.129,1.870,1.335,2.055,1.432,0.595,1.049,0.969,��,6.3,��
2016/10/08,17:20,1.133,1.866,1.338,2.056,1.431,0.596,1.048,0.968,��,5.5,��
2016/10/08,17:30,1.132,1.865,1.335,2.056,1.431,0.597,1.049,0.969,��,4.5,��
2016/10/08,17:40,1.133,1.866,1.337,2.057,1.435,0.595,1.050,0.970,��쐼,3.1,��
2016/10/08,17:50,1.132,1.869,1.337,2.054,1.432,0.598,1.049,0.972,��쐼,3.8,��
2016/10/08,18:00,1.131,1.868,1.338,2.058,1.429,0.598,1.050,0.972,��,5.2,��
2016/10/08,18:10,1.131,1.868,1.339,2.055,1.434,0.599,1.048,0.971,��쐼,5.2,��
2016/10/08,18:20,1.131,1.868,1.339,2.054,1.433,0.598,1.050,0.970,��쐼,5.3,��
2016/10/08,18:30,1.134,1.868,1.340,2.056,1.438,0.598,1.050,0.971,��쐼,5.5,��
2016/10/08,18:40,1.132,1.870,1.337,2.057,1.435,0.599,1.052,0.972,��쐼,5.0,��
2016/10/08,18:50,1.132,1.868,1.337,2.056,1.437,0.599,1.052,0.973,��,4.5,��
2016/10/08,19:00,1.135,1.870,1.338,2.055,1.437,0.598,1.051,0.973,��쐼,4.7,��
2016/10/08,19:10,1.132,1.870,1.341,2.053,1.438,0.600,1.053,0.972,��쐼,3.5,��
2016/10/08,19:20,1.137,1.868,1.338,2.056,1.436,0.598,1.053,0.974,��쐼,4.1,��
2016/10/08,19:30,1.135,1.869,1.340,2.057,1.438,0.598,1.052,0.971,�쐼,4.4,��
2016/10/08,19:40,1.134,1.869,1.340,2.054,1.439,0.599,1.053,0.973,�쐼,2.6,��
2016/10/08,19:50,1.132,1.869,1.339,2.055,1.437,0.600,1.053,0.975,�쐼,1.8,��
2016/10/08,20:00,1.135,1.869,1.339,2.057,1.439,0.598,1.054,0.973,��,2.3,��
2016/10/08,20:10,1.133,1.867,1.343,2.057,1.438,0.598,1.054,0.973,��쐼,1.8,��
2016/10/08,20:20,1.135,1.869,1.338,2.057,1.439,0.600,1.053,0.972,��,1.4,��
2016/10/08,20:30,1.134,1.870,1.338,2.058,1.438,0.599,1.053,0.972,��,2.5,��
2016/10/08,20:40,1.134,1.870,1.340,2.055,1.437,0.598,1.051,0.973,��쐼,3.4,��
2016/10/08,20:50,1.133,1.868,1.340,2.059,1.441,0.600,1.054,0.972,��,4.1,��
2016/10/08,21:00,1.133,1.870,1.340,2.056,1.439,0.599,1.053,0.975,��쐼,5.2,��
2016/10/08,21:10,1.135,1.872,1.342,2.057,1.442,0.600,1.053,0.973,��쐼,4.6,��
2016/10/08,21:20,1.136,1.868,1.339,2.058,1.441,0.599,1.054,0.973,��쐼,3.8,��
2016/10/08,21:30,1.135,1.869,1.343,2.058,1.439,0.599,1.052,0.975,��,3.8,��
2016/10/08,21:40,1.136,1.871,1.341,2.060,1.439,0.599,1.054,0.972,��,2.8,��
2016/10/08,21:50,1.135,1.871,1.339,2.056,1.438,0.600,1.053,0.974,��,3.1,��
2016/10/08,22:00,1.136,1.870,1.339,2.059,1.441,0.598,1.054,0.974,��,3.2,��
2016/10/08,22:10,1.135,1.868,1.341,2.057,1.439,0.599,1.055,0.974,��,4.2,��
2016/10/08,22:20,1.137,1.868,1.342,2.060,1.442,0.600,1.053,0.973,��쐼,4.1,��
2016/10/08,22:30,1.136,1.872,1.338,2.060,1.439,0.598,1.052,0.974,��쐼,4.4,��
2016/10/08,22:40,1.134,1.870,1.337,2.054,1.438,0.598,1.055,0.974,��쐼,5.3,��
2016/10/08,22:50,1.135,1.875,1.338,2.058,1.441,0.598,1.054,0.974,�쐼,6.0,��
2016/10/08,23:00,1.134,1.870,1.342,2.058,1.443,0.600,1.055,0.974,�쐼,6.1,��
2016/10/08,23:10,1.135,1.870,1.340,2.057,1.442,0.598,1.055,0.974,�쐼,6.0,��
2016/10/08,23:20,1.138,1.871,1.341,2.057,1.442,0.599,1.054,0.972,�쐼,6.4,��
2016/10/08,23:30,1.135,1.871,1.345,2.058,1.444,0.599,1.056,0.974,�쐼,6.0,��
2016/10/08,23:40,1.138,1.869,1.343,2.058,1.446,0.601,1.054,0.973,��쐼,6.3,��
2016/10/08,23:50,1.136,1.871,1.342,2.058,1.443,0.601,1.057,0.973,��쐼,5.8,��
